Regional Weather Roundup
Issued by NWS Albany, NY

Home | Current Version | Previous Version | Text Only | Print | Product List | Glossary On
Versions: 1 2 3 4 5 6 7 8 9 10 11 12 13 14 15 16 17 18 19 20 21 22 23 24 25 26 27 28 29 30 31 32 33 34 35 36 37 38 39 40 41 42 43 44 45 46 47 48 49 50
000
ASUS41 KALY 022310
RWRALY

NEW YORK STATE HOURLY WEATHER ROUNDUP
NATIONAL WEATHER SERVICE ALBANY NY
600 PM EST FRI DEC 02 2016

NOTE: "FAIR" INDICATES FEW OR NO CLOUDS BELOW 12,000 FEET WITH NO
SIGNIFICANT WEATHER AND/OR NO OBSTRUCTIONS TO VISIBILITY.

NYZ032-033-038>043-046>054-057>066-NYZ062>081-082-084-030000-
EAST


CITY           SKY/WX    TMP DP  RH WIND       PRES   REMARKS
ALBANY         MOCLDY    43  29  57 W9        29.81R
GLENS FALLS    MOCLDY    43  29  57 SW9G20    29.75F
POUGHKEEPSIE   CLOUDY    43  29  57 W14       29.86S
NEWBURGH       PTCLDY    41  36  81 W12       29.87R
MONTGOMERY     CLOUDY    43  33  68 W6        29.86R
WHITE PLAINS   MOCLDY    46  27  47 VRB6      29.85S
ISLIP          PTCLDY    47  28  47 W15       29.85S
NEW YORK CITY  PTCLDY    50  27  40 W16G22    29.88S
CENTRAL PARK   CLEAR     48  26  42 W10G20    29.90S
$$

NYZ005>009-017-018-044>046-055-056-030000-
CENTRAL


CITY           SKY/WX    TMP DP  RH WIND       PRES   REMARKS
FULTON         LGT RAIN  40  31  70 W12       29.85R WCI  33
SYRACUSE       CLOUDY    39  29  67 W21G33    29.84R WCI  29
ROME           CLOUDY    40  31  70 W18G25    29.83R WCI  31
ELMIRA         MOCLDY    39  28  64 W10       29.90S WCI  32
BINGHAMTON     CLOUDY    34  28  79 W20G28    29.84S WCI  23
MONTICELLO     CLOUDY    36  34  93 W7        29.85S WCI  30
$$

NYZ026>034-041>043-087-030000-
NORTH


CITY           SKY/WX    TMP DP  RH WIND       PRES   REMARKS
WATERTOWN      CLOUDY    39  30  70 W15       29.82R WCI  31
FORT DRUM      NOT AVBL
OGDENSBURG     FAIR      35  32  88 W3        29.78R
MASSENA        CLOUDY    35  30  82 W7        29.77R WCI  29
SARANAC LAKE   LGT SNOW  31  28  89 W7        29.69R FOG     WCI  24
PLATTSBURGH    CLOUDY    37  32  82 W3        29.73R
$$

NYZ001>004-010>016-019>021-085-030000-
WEST


CITY           SKY/WX    TMP DP  RH WIND       PRES   REMARKS
NIAGARA FALLS  LGT RAIN  40  29  64 W21G26    29.93R WCI  30
BUFFALO        LGT RAIN  39  29  67 W21G30    29.93R WCI  29
DUNKIRK        CLOUDY    40  30  67 W15G24    29.99R WCI  32
JAMESTOWN      CLOUDY    34  27  75 W10G18    29.96R WCI  26
WELLSVILLE     FLURRIES  35  28  75 W17G26    29.91R WCI  25
ROCHESTER      CLOUDY    40  29  64 W12G26    29.89R WCI  33
PENN YAN       CLOUDY    38  27  64 W18G25    29.89R WCI  28
$$

             KEY
       WCI = WIND CHILL INDEX
       VSB = VISIBILITY
       HX  = HEAT INDEX
$$



USA.gov is the U.S. government's official web portal to all federal, state and local government web resources and services.